| time (UTC) | temp F | wind direction | speed MPH | gust MPH | rain 1hr in | rain 24hr in | rain mn in | humidity % | barometer mb |
| 20260507003606 | 35 | 22 | 0.0 | 2.0 | 0.00 | 0.50 | 0.00 | 83 | 1009.6 |
| 20260507003306 | 35 | 27 | 0.0 | 2.0 | 0.00 | 0.50 | 0.00 | 82 | 1009.6 |
| 20260507003006 | 35 | 25 | 0.0 | 2.0 | 0.00 | 0.50 | 0.00 | 82 | 1009.6 |
| 20260507002706 | 35 | 21 | 0.0 | 2.0 | 0.00 | 0.50 | 0.00 | 82 | 1009.6 |
| 20260507002406 | 35 | 360 | 0.0 | 2.0 | 0.00 | 0.50 | 0.00 | 82 | 1009.7 |
| 20260507002106 | 35 | 360 | 0.0 | 2.0 | 0.00 | 0.50 | 0.00 | 81 | 1009.6 |
| 20260507001827 | 35 | 360 | 0.0 | 2.0 | 0.00 | 0.50 | 0.00 | 81 | 1009.5 |
| 20260507001506 | 35 | 0 | 0.0 | 2.0 | 0.00 | 0.50 | 0.00 | 80 | 1009.6 |
| 20260507001206 | 35 | 0 | 0.0 | 2.0 | 0.00 | 0.50 | 0.00 | 80 | 1009.4 |
| 20260507000905 | 35 | 0 | 0.0 | 2.0 | 0.00 | 0.50 | 0.00 | 79 | 1009.7 |
| 20260507000606 | 35 | 360 | 0.0 | 2.0 | 0.00 | 0.50 | 0.00 | 80 | 1009.5 |
| 20260507000306 | 35 | 360 | 0.0 | 2.0 | 0.00 | 0.50 | 0.00 | 80 | 1009.5 |
| 20260507000006 | 35 | 359 | 0.0 | 2.0 | 0.00 | 0.50 | 0.00 | 80 | 1009.7 |
| 20260506235706 | 35 | 358 | 0.0 | 2.0 | 0.00 | 0.50 | 0.00 | 81 | 1009.6 |
| 20260506235406 | 35 | 358 | 0.0 | 2.0 | 0.00 | 0.50 | 0.00 | 81 | 1009.6 |
| 20260506235106 | 35 | 0 | 0.0 | 2.0 | 0.00 | 0.50 | 0.00 | 80 | 1009.7 |
| 20260506234806 | 35 | 0 | 0.0 | 2.0 | 0.00 | 0.50 | 0.00 | 80 | 1009.6 |
| 20260506234506 | 36 | 0 | 0.0 | 2.0 | 0.00 | 0.50 | 0.00 | 79 | 1009.4 |
| 20260506234206 | 36 | 354 | 0.0 | 2.0 | 0.00 | 0.50 | 0.00 | 78 | 1009.6 |
| 20260506233906 | 36 | 346 | 0.0 | 2.0 | 0.00 | 0.50 | 0.00 | 76 | 1009.6 |
| 20260506233606 | 36 | 346 | 0.0 | 2.0 | 0.00 | 0.50 | 0.00 | 76 | 1009.5 |
| 20260506233306 | 36 | 360 | 0.0 | 2.0 | 0.00 | 0.50 | 0.00 | 77 | 1009.4 |
| 20260506233006 | 36 | 0 | 0.0 | 2.0 | 0.00 | 0.50 | 0.00 | 77 | 1009.5 |
| 20260506232707 | 36 | 355 | 0.0 | 2.0 | 0.00 | 0.50 | 0.00 | 78 | 1009.4 |
| 20260506232406 | 36 | 350 | 0.0 | 2.0 | 0.00 | 0.50 | 0.00 | 78 | 1009.5 |
| 20260506232106 | 36 | 346 | 1.0 | 2.0 | 0.00 | 0.50 | 0.00 | 80 | 1009.6 |
| 20260506231806 | 37 | 340 | 1.0 | 4.0 | 0.00 | 0.50 | 0.00 | 80 | 1009.6 |
| 20260506231506 | 37 | 337 | 1.0 | 4.0 | 0.00 | 0.50 | 0.00 | 79 | 1009.7 |
| 20260506231206 | 37 | 337 | 1.0 | 4.0 | 0.00 | 0.50 | 0.00 | 78 | 1009.6 |
| 20260506230905 | 37 | 337 | 0.0 | 2.0 | 0.00 | 0.50 | 0.00 | 79 | 1009.5 |
| 20260506230606 | 37 | 337 | 0.0 | 2.0 | 0.00 | 0.50 | 0.00 | 78 | 1009.7 |
| 20260506230305 | 37 | 0 | 0.0 | 2.0 | 0.00 | 0.50 | 0.00 | 78 | 1009.8 |
| 20260506230007 | 36 | 0 | 0.0 | 2.0 | 0.00 | 0.50 | 0.00 | 78 | 1009.6 |
| 20260506225726 | 36 | 0 | 0.0 | 2.0 | 0.00 | 0.50 | 0.00 | 78 | 1009.7 |
| 20260506225406 | 37 | 0 | 0.0 | 2.0 | 0.00 | 0.50 | 0.00 | 78 | 1009.8 |
| 20260506225106 | 37 | 331 | 0.0 | 2.0 | 0.00 | 0.50 | 0.00 | 77 | 1009.7 |
| 20260506224806 | 37 | 334 | 0.0 | 2.0 | 0.00 | 0.50 | 0.00 | 76 | 1009.9 |
| 20260506224526 | 37 | 334 | 0.0 | 2.0 | 0.00 | 0.50 | 0.00 | 76 | 1009.6 |
| 20260506224206 | 37 | 343 | 0.0 | 2.0 | 0.00 | 0.50 | 0.00 | 76 | 1009.9 |
| 20260506223906 | 37 | 342 | 0.0 | 4.0 | 0.00 | 0.50 | 0.00 | 77 | 1009.7 |
| 20260506223606 | 37 | 342 | 1.0 | 4.0 | 0.00 | 0.50 | 0.00 | 78 | 1009.7 |
| 20260506223305 | 37 | 338 | 1.0 | 4.0 | 0.00 | 0.50 | 0.00 | 77 | 1009.9 |
| 20260506223006 | 37 | 338 | 1.0 | 4.0 | 0.00 | 0.50 | 0.00 | 78 | 1009.8 |
| 20260506222707 | 38 | 337 | 1.0 | 4.0 | 0.00 | 0.50 | 0.00 | 77 | 1009.7 |
| 20260506222406 | 37 | 338 | 1.0 | 4.0 | 0.00 | 0.50 | 0.00 | 78 | 1009.9 |
| 20260506222106 | 37 | 339 | 0.0 | 2.0 | 0.00 | 0.50 | 0.00 | 79 | 1009.7 |
| 20260506221827 | 37 | 341 | 0.0 | 2.0 | 0.00 | 0.50 | 0.00 | 80 | 1009.7 |
| 20260506221506 | 37 | 341 | 0.0 | 2.0 | 0.00 | 0.50 | 0.00 | 80 | 1009.7 |
| 20260506221227 | 38 | 337 | 0.0 | 2.0 | 0.00 | 0.50 | 0.00 | 79 | 1009.8 |
| 20260506220906 | 38 | 337 | 1.0 | 2.0 | 0.00 | 0.50 | 0.00 | 76 | 1009.8 |
| 20260506220606 | 38 | 339 | 1.0 | 2.0 | 0.00 | 0.50 | 0.00 | 78 | 1009.7 |
| 20260506220305 | 37 | 339 | 1.0 | 2.0 | 0.00 | 0.50 | 0.00 | 79 | 1009.6 |
| 20260506220020 | 36 | 339 | 0.0 | 2.0 | 0.00 | 0.50 | 0.00 | 81 | 1009.7 |
| 20260506215705 | 36 | 351 | 0.0 | 2.0 | 0.00 | 0.50 | 0.50 | 81 | 1009.7 |
| 20260506215406 | 36 | 0 | 0.0 | 2.0 | 0.00 | 0.50 | 0.50 | 80 | 1009.6 |
| 20260506215106 | 36 | 0 | 0.0 | 2.0 | 0.00 | 0.50 | 0.50 | 81 | 1009.6 |
| 20260506214806 | 36 | 0 | 0.0 | 2.0 | 0.00 | 0.50 | 0.50 | 81 | 1009.6 |
| 20260506214506 | 37 | 0 | 0.0 | 2.0 | 0.00 | 0.50 | 0.50 | 81 | 1009.5 |
| 20260506214205 | 37 | 360 | 0.0 | 2.0 | 0.00 | 0.50 | 0.50 | 80 | 1009.6 |
| 20260506213906 | 38 | 298 | 0.0 | 2.0 | 0.00 | 0.50 | 0.50 | 79 | 1009.6 |
| 20260506213606 | 38 | 311 | 0.0 | 2.0 | 0.00 | 0.50 | 0.50 | 78 | 1009.4 |
| 20260506213307 | 38 | 311 | 0.0 | 2.0 | 0.00 | 0.50 | 0.50 | 78 | 1009.3 |
| 20260506213006 | 38 | 324 | 0.0 | 2.0 | 0.00 | 0.50 | 0.50 | 79 | 1009.5 |
| 20260506212727 | 38 | 334 | 0.0 | 2.0 | 0.00 | 0.50 | 0.50 | 79 | 1009.6 |
| 20260506212406 | 38 | 349 | 0.0 | 2.0 | 0.00 | 0.50 | 0.50 | 78 | 1009.3 |
| 20260506212107 | 37 | 7 | 0.0 | 2.0 | 0.00 | 0.50 | 0.50 | 77 | 1009.4 |
| 20260506211806 | 37 | 34 | 0.0 | 2.0 | 0.00 | 0.50 | 0.50 | 79 | 1009.4 |
| 20260506211505 | 37 | 38 | 0.0 | 2.0 | 0.00 | 0.50 | 0.50 | 79 | 1009.4 |
| 20260506211227 | 37 | 31 | 0.0 | 2.0 | 0.00 | 0.50 | 0.50 | 79 | 1009.5 |
| 20260506210906 | 37 | 0 | 0.0 | 2.0 | 0.00 | 0.50 | 0.50 | 81 | 1009.3 |
| 20260506210606 | 37 | 359 | 0.0 | 2.0 | 0.00 | 0.50 | 0.50 | 81 | 1009.4 |
| 20260506210305 | 37 | 349 | 0.0 | 2.0 | 0.00 | 0.50 | 0.50 | 81 | 1009.4 |
| 20260506210027 | 37 | 347 | 1.0 | 2.0 | 0.00 | 0.50 | 0.50 | 80 | 1009.4 |
| 20260506205705 | 38 | 347 | 0.0 | 2.0 | 0.00 | 0.50 | 0.50 | 80 | 1009.4 |
| 20260506205427 | 38 | 346 | 1.0 | 2.0 | 0.00 | 0.50 | 0.50 | 79 | 1009.3 |
| 20260506205108 | 38 | 348 | 1.0 | 4.0 | 0.00 | 0.50 | 0.50 | 79 | 1009.2 |
| 20260506204806 | 39 | 341 | 1.0 | 4.0 | 0.00 | 0.50 | 0.50 | 79 | 1009.3 |
| 20260506204506 | 39 | 342 | 2.0 | 4.0 | 0.00 | 0.50 | 0.50 | 79 | 1009.4 |
| 20260506204226 | 39 | 341 | 2.0 | 4.0 | 0.00 | 0.50 | 0.50 | 78 | 1009.1 |
| 20260506203906 | 39 | 341 | 2.0 | 4.0 | 0.00 | 0.50 | 0.50 | 78 | 1009.3 |
| 20260506203606 | 39 | 338 | 2.0 | 4.0 | 0.00 | 0.50 | 0.50 | 78 | 1009.3 |
| 20260506203306 | 38 | 340 | 1.0 | 4.0 | 0.00 | 0.50 | 0.50 | 77 | 1009.2 |
| 20260506203026 | 38 | 353 | 1.0 | 4.0 | 0.00 | 0.50 | 0.50 | 77 | 1009.3 |
| 20260506202707 | 38 | 37 | 0.0 | 4.0 | 0.00 | 0.50 | 0.50 | 79 | 1009.3 |
| 20260506202406 | 38 | 60 | 0.0 | 2.0 | 0.00 | 0.50 | 0.50 | 80 | 1009.0 |
| 20260506202106 | 37 | 64 | 0.0 | 2.0 | 0.00 | 0.50 | 0.50 | 79 | 1009.1 |
| 20260506201806 | 37 | 0 | 0.0 | 2.0 | 0.00 | 0.50 | 0.50 | 80 | 1009.1 |
| 20260506201527 | 38 | 36 | 0.0 | 4.0 | 0.00 | 0.50 | 0.50 | 80 | 1009.2 |
| 20260506201227 | 38 | 14 | 0.0 | 4.0 | 0.00 | 0.50 | 0.50 | 80 | 1009.2 |
| 20260506200927 | 38 | 355 | 1.0 | 4.0 | 0.00 | 0.50 | 0.50 | 80 | 1009.0 |
| 20260506200607 | 38 | 347 | 1.0 | 4.0 | 0.00 | 0.50 | 0.50 | 80 | 1009.1 |
| 20260506200306 | 38 | 344 | 1.0 | 2.0 | 0.00 | 0.50 | 0.50 | 80 | 1009.0 |
| 20260506200006 | 38 | 352 | 0.0 | 2.0 | 0.00 | 0.50 | 0.50 | 80 | 1009.2 |
| 20260506195706 | 37 | 0 | 0.0 | 2.0 | 0.00 | 0.50 | 0.50 | 81 | 1009.1 |
| 20260506195427 | 37 | 0 | 0.0 | 2.0 | 0.00 | 0.50 | 0.50 | 82 | 1009.1 |
| 20260506195105 | 38 | 0 | 0.0 | 2.0 | 0.00 | 0.50 | 0.50 | 80 | 1008.7 |
| 20260506194828 | 38 | 353 | 0.0 | 4.0 | 0.00 | 0.50 | 0.50 | 80 | 1009.1 |
| 20260506194506 | 39 | 350 | 1.0 | 4.0 | 0.00 | 0.50 | 0.50 | 79 | 1009.0 |
| 20260506194206 | 40 | 40 | 2.0 | 6.0 | 0.00 | 0.50 | 0.50 | 77 | 1008.9 |
| 20260506193926 | 40 | 68 | 3.0 | 6.0 | 0.00 | 0.50 | 0.50 | 76 | 1008.9 |
| 20260506193607 | 40 | 88 | 3.0 | 6.0 | 0.00 | 0.50 | 0.50 | 72 | 1008.8 |
| 20260506193305 | 40 | 85 | 3.0 | 8.0 | 0.00 | 0.50 | 0.50 | 70 | 1008.9 |
| 20260506193006 | 41 | 83 | 4.0 | 8.0 | 0.00 | 0.50 | 0.50 | 71 | 1008.8 |
| 20260506192705 | 40 | 81 | 5.0 | 8.0 | 0.00 | 0.50 | 0.50 | 71 | 1008.8 |
| 20260506192406 | 40 | 80 | 4.0 | 8.0 | 0.00 | 0.50 | 0.50 | 73 | 1008.7 |
| 20260506192106 | 40 | 73 | 2.0 | 8.0 | 0.00 | 0.50 | 0.50 | 74 | 1008.5 |
| 20260506191805 | 39 | 50 | 1.0 | 6.0 | 0.00 | 0.50 | 0.50 | 75 | 1008.7 |
| 20260506191505 | 39 | 346 | 0.0 | 2.0 | 0.00 | 0.50 | 0.50 | 77 | 1008.5 |
| 20260506191205 | 40 | 343 | 0.0 | 2.0 | 0.00 | 0.50 | 0.50 | 75 | 1008.6 |
| 20260506190905 | 40 | 22 | 1.0 | 4.0 | 0.00 | 0.50 | 0.50 | 77 | 1008.5 |
| 20260506190605 | 40 | 65 | 1.0 | 4.0 | 0.00 | 0.50 | 0.50 | 77 | 1008.4 |
| 20260506190305 | 39 | 75 | 1.0 | 4.0 | 0.00 | 0.50 | 0.50 | 74 | 1008.4 |
| 20260506190007 | 39 | 64 | 1.0 | 4.0 | 0.00 | 0.50 | 0.50 | 77 | 1008.2 |
| 20260506185705 | 39 | 52 | 0.0 | 4.0 | 0.00 | 0.50 | 0.50 | 78 | 1008.4 |
| 20260506185405 | 40 | 285 | 0.0 | 2.0 | 0.00 | 0.50 | 0.50 | 78 | 1008.1 |
| 20260506185106 | 40 | 282 | 0.0 | 2.0 | 0.00 | 0.50 | 0.50 | 77 | 1008.2 |
| 20260506184805 | 40 | 299 | 1.0 | 2.0 | 0.00 | 0.50 | 0.50 | 77 | 1008.2 |
| 20260506184527 | 40 | 326 | 1.0 | 2.0 | 0.00 | 0.50 | 0.50 | 74 | 1008.1 |
| 20260506184226 | 40 | 41 | 0.0 | 4.0 | 0.00 | 0.50 | 0.50 | 77 | 1008.1 |
| 20260506183905 | 41 | 67 | 0.0 | 4.0 | 0.00 | 0.50 | 0.50 | 76 | 1008.1 |
| 20260506183606 | 41 | 67 | 0.0 | 4.0 | 0.00 | 0.50 | 0.50 | 74 | 1008.0 |
| 20260506183306 | 41 | 51 | 0.0 | 2.0 | 0.00 | 0.50 | 0.50 | 75 | 1007.9 |
| 20260506183006 | 42 | 286 | 0.0 | 2.0 | 0.00 | 0.50 | 0.50 | 75 | 1008.0 |
| 20260506182706 | 42 | 293 | 0.0 | 2.0 | 0.00 | 0.50 | 0.50 | 76 | 1008.0 |
| 20260506182427 | 42 | 297 | 0.0 | 2.0 | 0.00 | 0.50 | 0.50 | 75 | 1008.0 |
| 20260506182106 | 42 | 164 | 0.0 | 2.0 | 0.00 | 0.50 | 0.50 | 72 | 1008.0 |
| 20260506181805 | 42 | 179 | 1.0 | 4.0 | 0.00 | 0.50 | 0.50 | 74 | 1008.1 |
| 20260506181505 | 42 | 200 | 2.0 | 13.0 | 0.00 | 0.50 | 0.50 | 74 | 1007.9 |
| 20260506181206 | 42 | 241 | 4.0 | 13.0 | 0.00 | 0.50 | 0.50 | 75 | 1007.8 |
| 20260506180926 | 42 | 236 | 4.0 | 13.0 | 0.00 | 0.50 | 0.50 | 73 | 1008.1 |
| 20260506180606 | 42 | 266 | 5.0 | 14.0 | 0.00 | 0.50 | 0.50 | 72 | 1007.9 |
| 20260506180305 | 43 | 165 | 5.0 | 17.0 | 0.00 | 0.50 | 0.50 | 72 | 1008.1 |
| 20260506180006 | 43 | 170 | 6.0 | 17.0 | 0.00 | 0.50 | 0.50 | 72 | 1008.0 |
| 20260506175706 | 43 | 163 | 5.0 | 17.0 | 0.00 | 0.50 | 0.50 | 71 | 1008.2 |
| 20260506175405 | 43 | 197 | 4.0 | 17.0 | 0.00 | 0.50 | 0.50 | 69 | 1007.6 |
| 20260506175105 | 43 | 218 | 3.0 | 14.0 | 0.00 | 0.50 | 0.50 | 67 | 1007.8 |
| 20260506174827 | 43 | 225 | 2.0 | 9.0 | 0.00 | 0.50 | 0.50 | 68 | 1007.9 |
| 20260506174506 | 44 | 236 | 3.0 | 9.0 | 0.00 | 0.50 | 0.50 | 68 | 1007.8 |
| 20260506174226 | 44 | 305 | 4.0 | 14.0 | 0.00 | 0.50 | 0.50 | 68 | 1007.9 |
| 20260506173905 | 44 | 294 | 4.0 | 14.0 | 0.00 | 0.50 | 0.50 | 67 | 1007.7 |
| 20260506173606 | 44 | 283 | 4.0 | 14.0 | 0.00 | 0.50 | 0.50 | 67 | 1007.6 |
| 20260506173305 | 44 | 214 | 3.0 | 11.0 | 0.00 | 0.50 | 0.50 | 67 | 1007.6 |
| 20260506173006 | 44 | 206 | 2.0 | 11.0 | 0.00 | 0.50 | 0.50 | 66 | 1007.6 |
| 20260506172726 | 44 | 150 | 1.0 | 7.0 | 0.00 | 0.50 | 0.50 | 68 | 1007.6 |
| 20260506172406 | 44 | 205 | 3.0 | 11.0 | 0.00 | 0.50 | 0.50 | 68 | 1007.6 |
| 20260506172106 | 44 | 232 | 3.0 | 11.0 | 0.00 | 0.50 | 0.50 | 69 | 1007.6 |
| 20260506171827 | 44 | 236 | 3.0 | 11.0 | 0.00 | 0.50 | 0.50 | 69 | 1007.3 |
| 20260506171505 | 44 | 212 | 2.0 | 11.0 | 0.00 | 0.50 | 0.50 | 66 | 1007.4 |
| 20260506171205 | 44 | 192 | 1.0 | 8.0 | 0.00 | 0.50 | 0.50 | 69 | 1007.4 |
| 20260506170927 | 44 | 158 | 1.0 | 8.0 | 0.00 | 0.50 | 0.50 | 68 | 1007.4 |
| 20260506170606 | 44 | 95 | 0.0 | 4.0 | 0.00 | 0.50 | 0.50 | 74 | 1007.2 |
| 20260506170327 | 45 | 83 | 0.0 | 4.0 | 0.00 | 0.50 | 0.50 | 73 | 1007.3 |
| 20260506170006 | 45 | 75 | 0.0 | 4.0 | 0.00 | 0.50 | 0.50 | 71 | 1007.2 |
| 20260506165706 | 45 | 78 | 0.0 | 4.0 | 0.00 | 0.50 | 0.50 | 70 | 1007.1 |
| 20260506165405 | 46 | 80 | 0.0 | 4.0 | 0.00 | 0.50 | 0.50 | 72 | 1007.3 |
| 20260506165106 | 46 | 90 | 0.0 | 2.0 | 0.00 | 0.50 | 0.50 | 74 | 1007.2 |
| 20260506164826 | 46 | 90 | 0.0 | 2.0 | 0.00 | 0.50 | 0.50 | 73 | 1007.2 |
| 20260506164526 | 46 | 90 | 0.0 | 2.0 | 0.00 | 0.50 | 0.50 | 73 | 1007.2 |
| 20260506164206 | 47 | 0 | 0.0 | 2.0 | 0.00 | 0.50 | 0.50 | 75 | 1007.4 |
| 20260506163927 | 47 | 0 | 0.0 | 2.0 | 0.00 | 0.50 | 0.50 | 72 | 1007.1 |
| 20260506163606 | 47 | 0 | 0.0 | 2.0 | 0.00 | 0.50 | 0.50 | 70 | 1007.2 |
| 20260506163305 | 47 | 324 | 0.0 | 2.0 | 0.00 | 0.50 | 0.50 | 72 | 1007.2 |
| 20260506163005 | 47 | 302 | 0.0 | 2.0 | 0.00 | 0.50 | 0.50 | 73 | 1007.2 |
| 20260506162706 | 47 | 302 | 0.0 | 2.0 | 0.00 | 0.50 | 0.50 | 75 | 1007.1 |
| 20260506162405 | 47 | 46 | 0.0 | 2.0 | 0.00 | 0.50 | 0.50 | 76 | 1007.4 |
| 20260506162106 | 46 | 97 | 0.0 | 2.0 | 0.00 | 0.50 | 0.50 | 80 | 1007.3 |
| 20260506161805 | 45 | 114 | 0.0 | 2.0 | 0.00 | 0.50 | 0.50 | 80 | 1007.0 |
| 20260506161506 | 45 | 108 | 1.0 | 6.0 | 0.00 | 0.50 | 0.50 | 82 | 1007.1 |
| 20260506161205 | 45 | 116 | 2.0 | 6.0 | 0.00 | 0.50 | 0.50 | 78 | 1007.1 |
| 20260506160926 | 45 | 112 | 2.0 | 6.0 | 0.00 | 0.50 | 0.50 | 78 | 1007.3 |
| 20260506160606 | 46 | 103 | 3.0 | 7.0 | 0.00 | 0.50 | 0.50 | 73 | 1006.9 |
| 20260506160305 | 46 | 102 | 3.0 | 7.0 | 0.00 | 0.50 | 0.50 | 78 | 1007.1 |
| 20260506160006 | 46 | 105 | 3.0 | 7.0 | 0.00 | 0.50 | 0.50 | 73 | 1007.2 |
| 20260506155705 | 47 | 116 | 2.0 | 6.0 | 0.00 | 0.50 | 0.50 | 74 | 1007.1 |
| 20260506155426 | 48 | 135 | 2.0 | 6.0 | 0.00 | 0.50 | 0.50 | 71 | 1007.0 |
| 20260506155126 | 49 | 126 | 2.0 | 11.0 | 0.00 | 0.50 | 0.50 | 73 | 1007.0 |
| 20260506154805 | 48 | 116 | 3.0 | 11.0 | 0.00 | 0.50 | 0.50 | 76 | 1007.3 |
| 20260506154505 | 47 | 110 | 3.0 | 11.0 | 0.00 | 0.50 | 0.50 | 77 | 1007.2 |
| 20260506154227 | 46 | 116 | 3.0 | 11.0 | 0.00 | 0.50 | 0.50 | 73 | 1007.3 |
| 20260506153906 | 44 | 118 | 6.0 | 18.0 | 0.00 | 0.50 | 0.50 | 77 | 1007.2 |
| 20260506153606 | 44 | 119 | 8.0 | 18.0 | 0.00 | 0.50 | 0.50 | 81 | 1007.4 |
| 20260506153306 | 44 | 113 | 9.0 | 18.0 | 0.00 | 0.50 | 0.50 | 85 | 1007.1 |
| 20260506153027 | 44 | 112 | 9.0 | 16.0 | 0.00 | 0.50 | 0.50 | 82 | 1007.3 |
| 20260506152705 | 44 | 107 | 8.0 | 14.0 | 0.00 | 0.50 | 0.50 | 82 | 1007.1 |
| 20260506152405 | 45 | 109 | 7.0 | 13.0 | 0.00 | 0.50 | 0.50 | 82 | 1006.9 |
| 20260506152126 | 45 | 108 | 7.0 | 13.0 | 0.00 | 0.50 | 0.50 | 78 | 1006.9 |
| 20260506151805 | 45 | 107 | 7.0 | 15.0 | 0.00 | 0.50 | 0.50 | 79 | 1006.8 |
| 20260506151505 | 45 | 106 | 7.0 | 15.0 | 0.00 | 0.50 | 0.50 | 78 | 1006.9 |
| 20260506151226 | 46 | 114 | 7.0 | 15.0 | 0.00 | 0.50 | 0.50 | 76 | 1007.0 |
| 20260506150927 | 48 | 120 | 6.0 | 15.0 | 0.00 | 0.50 | 0.50 | 74 | 1007.0 |
| 20260506150605 | 48 | 135 | 6.0 | 15.0 | 0.00 | 0.50 | 0.50 | 72 | 1007.2 |
| 20260506150327 | 48 | 128 | 7.0 | 15.0 | 0.00 | 0.50 | 0.50 | 73 | 1007.0 |
| 20260506150027 | 48 | 122 | 7.0 | 15.0 | 0.00 | 0.50 | 0.50 | 71 | 1007.0 |
| 20260506145705 | 47 | 120 | 6.0 | 15.0 | 0.00 | 0.50 | 0.50 | 75 | 1007.0 |
| 20260506145405 | 49 | 127 | 5.0 | 14.0 | 0.00 | 0.50 | 0.50 | 71 | 1006.9 |
| 20260506145127 | 47 | 145 | 5.0 | 11.0 | 0.00 | 0.50 | 0.50 | 76 | 1007.0 |
| 20260506144805 | 47 | 168 | 6.0 | 15.0 | 0.00 | 0.50 | 0.50 | 75 | 1007.0 |
| 20260506144505 | 46 | 167 | 6.0 | 15.0 | 0.00 | 0.50 | 0.50 | 73 | 1006.9 |
| 20260506144206 | 46 | 164 | 6.0 | 15.0 | 0.00 | 0.50 | 0.50 | 73 | 1006.9 |
| 20260506143906 | 46 | 141 | 6.0 | 15.0 | 0.00 | 0.50 | 0.50 | 74 | 1006.9 |
| 20260506143606 | 47 | 122 | 5.0 | 9.0 | 0.00 | 0.50 | 0.50 | 79 | 1007.0 |
| 20260506143305 | 46 | 117 | 5.0 | 9.0 | 0.00 | 0.50 | 0.50 | 84 | 1006.8 |
| 20260506143005 | 46 | 121 | 4.0 | 9.0 | 0.00 | 0.50 | 0.50 | 84 | 1006.7 |
| 20260506142705 | 47 | 121 | 3.0 | 6.0 | 0.00 | 0.50 | 0.50 | 80 | 1006.7 |
| 20260506142405 | 47 | 115 | 3.0 | 6.0 | 0.00 | 0.50 | 0.50 | 81 | 1006.7 |
| 20260506142126 | 47 | 121 | 3.0 | 6.0 | 0.00 | 0.50 | 0.50 | 81 | 1006.8 |
| 20260506141805 | 47 | 121 | 3.0 | 6.0 | 0.00 | 0.50 | 0.50 | 81 | 1006.6 |
| 20260506141505 | 47 | 119 | 3.0 | 6.0 | 0.00 | 0.50 | 0.50 | 82 | 1006.6 |
| 20260506141205 | 47 | 114 | 3.0 | 6.0 | 0.00 | 0.50 | 0.50 | 81 | 1006.6 |
| 20260506140907 | 49 | 117 | 3.0 | 7.0 | 0.00 | 0.50 | 0.50 | 78 | 1006.5 |
| 20260506140605 | 51 | 122 | 2.0 | 7.0 | 0.00 | 0.50 | 0.50 | 75 | 1006.6 |
| 20260506140305 | 51 | 134 | 2.0 | 7.0 | 0.00 | 0.50 | 0.50 | 80 | 1006.7 |
| 20260506140005 | 50 | 139 | 2.0 | 6.0 | 0.00 | 0.50 | 0.50 | 78 | 1006.5 |
| 20260506135706 | 48 | 149 | 2.0 | 4.0 | 0.00 | 0.50 | 0.50 | 78 | 1006.7 |
| 20260506135405 | 49 | 139 | 2.0 | 4.0 | 0.00 | 0.50 | 0.50 | 76 | 1006.4 |
| 20260506135105 | 51 | 142 | 2.0 | 4.0 | 0.00 | 0.50 | 0.50 | 79 | 1006.6 |
| 20260506134806 | 51 | 139 | 2.0 | 4.0 | 0.00 | 0.50 | 0.50 | 73 | 1006.6 |
| 20260506134505 | 51 | 139 | 2.0 | 4.0 | 0.00 | 0.50 | 0.50 | 79 | 1006.7 |
| 20260506134227 | 51 | 133 | 2.0 | 4.0 | 0.00 | 0.50 | 0.50 | 80 | 1006.7 |
| 20260506133926 | 50 | 128 | 2.0 | 6.0 | 0.00 | 0.50 | 0.50 | 81 | 1006.6 |
| 20260506133607 | 49 | 144 | 2.0 | 7.0 | 0.00 | 0.50 | 0.50 | 83 | 1006.5 |
| 20260506133305 | 49 | 162 | 3.0 | 7.0 | 0.00 | 0.50 | 0.50 | 80 | 1006.7 |
| 20260506133005 | 49 | 201 | 2.0 | 7.0 | 0.00 | 0.50 | 0.50 | 80 | 1006.6 |
| 20260506132705 | 49 | 230 | 2.0 | 7.0 | 0.00 | 0.50 | 0.50 | 83 | 1006.7 |
| 20260506132405 | 49 | 222 | 2.0 | 7.0 | 0.00 | 0.50 | 0.50 | 83 | 1006.6 |
| 20260506132105 | 48 | 184 | 2.0 | 7.0 | 0.00 | 0.50 | 0.50 | 87 | 1006.9 |
| 20260506131805 | 48 | 150 | 2.0 | 6.0 | 0.00 | 0.50 | 0.50 | 84 | 1006.9 |
| 20260506131505 | 48 | 141 | 2.0 | 6.0 | 0.00 | 0.50 | 0.50 | 82 | 1006.7 |
| 20260506131205 | 47 | 132 | 2.0 | 7.0 | 0.00 | 0.50 | 0.50 | 88 | 1006.6 |
| 20260506130926 | 47 | 141 | 2.0 | 7.0 | 0.00 | 0.50 | 0.50 | 86 | 1006.9 |
| 20260506130605 | 48 | 144 | 2.0 | 7.0 | 0.00 | 0.50 | 0.50 | 87 | 1006.9 |
| 20260506130305 | 47 | 150 | 2.0 | 7.0 | 0.00 | 0.50 | 0.50 | 89 | 1006.8 |
| 20260506130006 | 47 | 140 | 2.0 | 6.0 | 0.00 | 0.50 | 0.50 | 91 | 1006.9 |
| 20260506125726 | 47 | 152 | 3.0 | 8.0 | 0.00 | 0.50 | 0.50 | 90 | 1007.0 |
| 20260506125405 | 47 | 154 | 3.0 | 8.0 | 0.00 | 0.50 | 0.50 | 90 | 1006.8 |
| 20260506125126 | 48 | 154 | 3.0 | 8.0 | 0.00 | 0.50 | 0.50 | 90 | 1006.8 |
| 20260506124806 | 47 | 130 | 3.0 | 6.0 | 0.00 | 0.50 | 0.50 | 94 | 1006.9 |
| 20260506124526 | 46 | 119 | 3.0 | 6.0 | 0.00 | 0.50 | 0.50 | 94 | 1006.8 |
| 20260506124205 | 45 | 110 | 3.0 | 6.0 | 0.00 | 0.50 | 0.50 | 95 | 1006.9 |
| 20260506123905 | 44 | 120 | 3.0 | 6.0 | 0.00 | 0.50 | 0.50 | 94 | 1007.0 |
| 20260506123605 | 44 | 126 | 3.0 | 6.0 | 0.00 | 0.50 | 0.50 | 92 | 1006.9 |
| 20260506123305 | 45 | 136 | 3.0 | 6.0 | 0.00 | 0.50 | 0.50 | 90 | 1006.8 |
| 20260506123006 | 47 | 146 | 2.0 | 6.0 | 0.01 | 0.50 | 0.50 | 91 | 1006.9 |
| 20260506122705 | 47 | 142 | 1.0 | 4.0 | 0.01 | 0.50 | 0.50 | 94 | 1006.9 |
| 20260506122405 | 47 | 133 | 1.0 | 4.0 | 0.01 | 0.50 | 0.50 | 93 | 1006.8 |
| 20260506122126 | 47 | 219 | 1.0 | 4.0 | 0.01 | 0.50 | 0.50 | 96 | 1006.9 |
| 20260506121805 | 44 | 259 | 1.0 | 6.0 | 0.02 | 0.50 | 0.50 | 94 | 1006.9 |
| 20260506121526 | 44 | 297 | 1.0 | 6.0 | 0.02 | 0.50 | 0.50 | 95 | 1006.8 |
| 20260506121205 | 42 | 293 | 1.0 | 6.0 | 0.02 | 0.50 | 0.50 | 95 | 1006.7 |
| 20260506120905 | 40 | 320 | 1.0 | 4.0 | 0.02 | 0.50 | 0.50 | 95 | 1006.6 |
| 20260506120605 | 39 | 335 | 1.0 | 6.0 | 0.02 | 0.50 | 0.50 | 94 | 1006.8 |
| 20260506120305 | 39 | 344 | 1.0 | 6.0 | 0.02 | 0.50 | 0.50 | 94 | 1006.7 |
| 20260506120026 | 39 | 7 | 1.0 | 6.0 | 0.02 | 0.50 | 0.50 | 94 | 1006.8 |
| 20260506115707 | 39 | 12 | 1.0 | 6.0 | 0.04 | 0.50 | 0.50 | 94 | 1006.8 |
| 20260506115427 | 39 | 14 | 1.0 | 6.0 | 0.04 | 0.50 | 0.50 | 94 | 1006.8 |
| 20260506115106 | 39 | 16 | 2.0 | 11.0 | 0.06 | 0.50 | 0.50 | 94 | 1006.7 |
| 20260506114826 | 39 | 27 | 2.0 | 11.0 | 0.07 | 0.50 | 0.50 | 93 | 1006.9 |
| 20260506114527 | 38 | 27 | 2.0 | 11.0 | 0.07 | 0.50 | 0.50 | 92 | 1006.7 |
| 20260506114206 | 38 | 29 | 2.0 | 11.0 | 0.09 | 0.50 | 0.50 | 91 | 1006.7 |
| 20260506113905 | 38 | 42 | 2.0 | 8.0 | 0.09 | 0.50 | 0.50 | 92 | 1006.6 |
| 20260506113626 | 38 | 45 | 2.0 | 8.0 | 0.09 | 0.50 | 0.50 | 92 | 1006.6 |
| 20260506113326 | 38 | 56 | 1.0 | 8.0 | 0.09 | 0.50 | 0.50 | 93 | 1006.4 |
| 20260506113005 | 38 | 29 | 1.0 | 8.0 | 0.08 | 0.48 | 0.48 | 92 | 1006.8 |
| 20260506112705 | 38 | 354 | 1.0 | 4.0 | 0.08 | 0.48 | 0.48 | 93 | 1006.8 |
| 20260506112426 | 38 | 19 | 1.0 | 7.0 | 0.08 | 0.48 | 0.48 | 93 | 1006.8 |
| 20260506112105 | 38 | 7 | 1.0 | 7.0 | 0.08 | 0.48 | 0.48 | 93 | 1006.8 |
| 20260506111806 | 38 | 4 | 1.0 | 7.0 | 0.07 | 0.47 | 0.47 | 93 | 1006.7 |
| 20260506111505 | 38 | 328 | 2.0 | 6.0 | 0.07 | 0.47 | 0.47 | 93 | 1006.6 |
| 20260506111205 | 38 | 327 | 2.0 | 6.0 | 0.07 | 0.47 | 0.47 | 93 | 1006.9 |
| 20260506110926 | 38 | 339 | 2.0 | 6.0 | 0.07 | 0.47 | 0.47 | 92 | 1007.0 |
| 20260506110605 | 37 | 356 | 2.0 | 8.0 | 0.07 | 0.47 | 0.47 | 92 | 1007.0 |
| 20260506110305 | 37 | 27 | 2.0 | 8.0 | 0.07 | 0.47 | 0.47 | 94 | 1006.9 |
| 20260506110005 | 37 | 355 | 2.0 | 11.0 | 0.07 | 0.47 | 0.47 | 95 | 1006.9 |
| 20260506105705 | 37 | 37 | 6.0 | 24.0 | 0.06 | 0.46 | 0.46 | 95 | 1007.1 |
| 20260506105405 | 37 | 42 | 6.0 | 24.0 | 0.05 | 0.45 | 0.45 | 94 | 1007.0 |
| 20260506105105 | 37 | 53 | 7.0 | 24.0 | 0.04 | 0.44 | 0.44 | 95 | 1007.0 |
| 20260506104805 | 37 | 36 | 7.0 | 31.0 | 0.02 | 0.43 | 0.43 | 93 | 1006.9 |
| 20260506104505 | 37 | 55 | 8.0 | 39.0 | 0.01 | 0.41 | 0.41 | 95 | 1006.9 |
| 20260506104205 | 37 | 88 | 9.0 | 39.0 | 0.00 | 0.40 | 0.40 | 94 | 1007.0 |
| 20260506103926 | 38 | 106 | 8.0 | 39.0 | 0.00 | 0.40 | 0.40 | 93 | 1007.0 |
| 20260506103626 | 39 | 134 | 6.0 | 39.0 | 0.00 | 0.40 | 0.40 | 94 | 1006.9 |
| 20260506103326 | 41 | 169 | 2.0 | 13.0 | 0.00 | 0.40 | 0.40 | 96 | 1006.6 |
| 20260506103026 | 42 | 183 | 2.0 | 6.0 | 0.01 | 0.40 | 0.40 | 96 | 1006.5 |
| 20260506102705 | 42 | 190 | 3.0 | 7.0 | 0.01 | 0.40 | 0.40 | 96 | 1006.3 |
| 20260506102405 | 42 | 185 | 3.0 | 7.0 | 0.01 | 0.40 | 0.40 | 95 | 1006.1 |
| 20260506102105 | 44 | 190 | 2.0 | 7.0 | 0.01 | 0.40 | 0.40 | 96 | 1006.0 |
| 20260506101805 | 45 | 163 | 1.0 | 6.0 | 0.01 | 0.40 | 0.40 | 97 | 1006.0 |
| 20260506101526 | 44 | 283 | 1.0 | 2.0 | 0.01 | 0.40 | 0.40 | 99 | 1005.9 |
| 20260506101205 | 42 | 298 | 0.0 | 2.0 | 0.02 | 0.40 | 0.40 | 98 | 1005.8 |
| 20260506100906 | 42 | 264 | 0.0 | 2.0 | 0.02 | 0.40 | 0.40 | 98 | 1006.0 |
| 20260506100626 | 42 | 172 | 0.0 | 2.0 | 0.02 | 0.40 | 0.40 | 98 | 1006.1 |
| 20260506100305 | 41 | 123 | 0.0 | 2.0 | 0.02 | 0.40 | 0.40 | 98 | 1006.0 |
| 20260506100026 | 40 | 117 | 0.0 | 2.0 | 0.02 | 0.40 | 0.40 | 98 | 1006.0 |
| 20260506095706 | 41 | 132 | 0.0 | 2.0 | 0.02 | 0.40 | 0.40 | 98 | 1006.1 |
| 20260506095405 | 41 | 183 | 1.0 | 2.0 | 0.04 | 0.40 | 0.40 | 98 | 1006.1 |
| 20260506095106 | 41 | 209 | 1.0 | 2.0 | 0.04 | 0.40 | 0.40 | 98 | 1006.1 |
| 20260506094805 | 40 | 215 | 1.0 | 2.0 | 0.04 | 0.40 | 0.40 | 98 | 1006.0 |
| 20260506094505 | 41 | 205 | 0.0 | 2.0 | 0.04 | 0.40 | 0.40 | 97 | 1006.0 |
| 20260506094205 | 40 | 136 | 0.0 | 4.0 | 0.04 | 0.40 | 0.40 | 97 | 1006.0 |
| 20260506093905 | 40 | 122 | 1.0 | 4.0 | 0.04 | 0.40 | 0.40 | 97 | 1005.9 |
| 20260506093605 | 40 | 94 | 1.0 | 4.0 | 0.04 | 0.40 | 0.40 | 97 | 1006.0 |
| 20260506093326 | 40 | 65 | 0.0 | 4.0 | 0.04 | 0.40 | 0.40 | 97 | 1006.1 |
| 20260506093005 | 40 | 331 | 0.0 | 2.0 | 0.02 | 0.39 | 0.39 | 97 | 1005.8 |
| 20260506092705 | 40 | 322 | 0.0 | 2.0 | 0.02 | 0.39 | 0.39 | 97 | 1006.0 |
| 20260506092405 | 40 | 314 | 0.0 | 2.0 | 0.02 | 0.39 | 0.39 | 97 | 1006.0 |
| 20260506092104 | 40 | 322 | 0.0 | 4.0 | 0.02 | 0.39 | 0.39 | 97 | 1005.9 |
| 20260506091806 | 40 | 326 | 1.0 | 4.0 | 0.02 | 0.39 | 0.39 | 97 | 1005.9 |
| 20260506091505 | 40 | 329 | 1.0 | 4.0 | 0.02 | 0.39 | 0.39 | 96 | 1005.9 |
| 20260506091226 | 40 | 353 | 1.0 | 2.0 | 0.01 | 0.38 | 0.38 | 96 | 1005.9 |
| 20260506090905 | 39 | 77 | 1.0 | 8.0 | 0.02 | 0.38 | 0.38 | 95 | 1006.0 |
| 20260506090605 | 39 | 91 | 2.0 | 8.0 | 0.02 | 0.38 | 0.38 | 95 | 1006.1 |
| 20260506090326 | 39 | 98 | 2.0 | 8.0 | 0.02 | 0.38 | 0.38 | 95 | 1006.0 |
| 20260506090005 | 39 | 102 | 2.0 | 8.0 | 0.04 | 0.38 | 0.38 | 95 | 1006.0 |
| 20260506085706 | 40 | 106 | 1.0 | 8.0 | 0.04 | 0.38 | 0.38 | 96 | 1006.1 |
| 20260506085405 | 41 | 106 | 0.0 | 4.0 | 0.02 | 0.37 | 0.37 | 97 | 1006.1 |
| 20260506085105 | 42 | 96 | 0.0 | 2.0 | 0.04 | 0.37 | 0.37 | 97 | 1006.3 |
| 20260506084805 | 41 | 20 | 1.0 | 7.0 | 0.04 | 0.37 | 0.37 | 97 | 1006.2 |
| 20260506084505 | 40 | 360 | 1.0 | 8.0 | 0.05 | 0.37 | 0.37 | 97 | 1006.2 |
| 20260506084226 | 39 | 349 | 2.0 | 8.0 | 0.06 | 0.37 | 0.37 | 97 | 1006.0 |
| 20260506083905 | 39 | 343 | 2.0 | 8.0 | 0.06 | 0.37 | 0.37 | 97 | 1005.9 |
| 20260506083605 | 39 | 341 | 3.0 | 8.0 | 0.07 | 0.37 | 0.37 | 97 | 1006.0 |
| 20260506083305 | 39 | 336 | 2.0 | 8.0 | 0.08 | 0.37 | 0.37 | 97 | 1006.2 |
| 20260506083005 | 39 | 341 | 2.0 | 7.0 | 0.09 | 0.37 | 0.37 | 97 | 1006.0 |
| 20260506082704 | 40 | 339 | 1.0 | 7.0 | 0.09 | 0.37 | 0.37 | 97 | 1006.2 |
| 20260506082405 | 40 | 341 | 1.0 | 6.0 | 0.11 | 0.37 | 0.37 | 97 | 1006.0 |
| 20260506082126 | 40 | 340 | 0.0 | 4.0 | 0.11 | 0.37 | 0.37 | 97 | 1006.2 |
| 20260506081805 | 40 | 82 | 1.0 | 7.0 | 0.12 | 0.37 | 0.37 | 97 | 1006.3 |
| 20260506081505 | 38 | 83 | 3.0 | 9.0 | 0.12 | 0.37 | 0.37 | 97 | 1006.2 |
| 20260506081205 | 38 | 87 | 6.0 | 16.0 | 0.12 | 0.37 | 0.37 | 96 | 1006.1 |
| 20260506080905 | 37 | 92 | 7.0 | 16.0 | 0.12 | 0.35 | 0.35 | 96 | 1006.2 |
| 20260506080605 | 37 | 98 | 7.0 | 16.0 | 0.12 | 0.35 | 0.35 | 97 | 1006.1 |
| 20260506080325 | 37 | 100 | 8.0 | 23.0 | 0.12 | 0.35 | 0.35 | 97 | 1006.2 |
| 20260506073326 | 37 | 94 | 4.0 | 7.0 | 0.06 | 0.28 | 0.28 | 96 | 1005.9 |
| 20260506073005 | 38 | 95 | 4.0 | 7.0 | 0.05 | 0.27 | 0.27 | 97 | 1005.8 |
| 20260506072705 | 38 | 90 | 4.0 | 7.0 | 0.05 | 0.27 | 0.27 | 97 | 1005.9 |
| 20260506072405 | 38 | 89 | 3.0 | 6.0 | 0.04 | 0.26 | 0.26 | 97 | 1005.7 |
| 20260506072105 | 38 | 98 | 2.0 | 6.0 | 0.02 | 0.25 | 0.25 | 97 | 1005.7 |
| 20260506071805 | 39 | 109 | 1.0 | 4.0 | 0.02 | 0.25 | 0.25 | 97 | 1005.9 |
| 20260506071505 | 39 | 117 | 1.0 | 4.0 | 0.02 | 0.25 | 0.25 | 97 | 1005.7 |
| 20260506071205 | 39 | 113 | 0.0 | 2.0 | 0.02 | 0.25 | 0.25 | 97 | 1006.0 |
| 20260506070904 | 39 | 80 | 0.0 | 2.0 | 0.02 | 0.24 | 0.24 | 97 | 1005.9 |
| 20260506070626 | 39 | 0 | 0.0 | 2.0 | 0.04 | 0.24 | 0.24 | 97 | 1005.8 |
| 20260506070305 | 39 | 0 | 0.0 | 2.0 | 0.04 | 0.22 | 0.22 | 97 | 1006.0 |
| 20260506062404 | 38 | 74 | 5.0 | 16.0 | 0.18 | 0.24 | 0.22 | 96 | 1005.7 |
| 20260506062127 | 38 | 85 | 6.0 | 21.0 | 0.19 | 0.24 | 0.22 | 95 | 1005.9 |
| 20260506061805 | 37 | 80 | 9.0 | 21.0 | 0.19 | 0.24 | 0.22 | 94 | 1005.9 |
| 20260506061504 | 37 | 81 | 12.0 | 27.0 | 0.20 | 0.24 | 0.22 | 96 | 1005.8 |
| 20260506061204 | 36 | 83 | 14.0 | 27.0 | 0.21 | 0.24 | 0.22 | 98 | 1005.9 |
| 20260506060905 | 36 | 88 | 17.0 | 30.0 | 0.20 | 0.22 | 0.21 | 98 | 1005.9 |
| 20260506060604 | 37 | 90 | 16.0 | 30.0 | 0.19 | 0.22 | 0.20 | 99 | 1005.8 |
| 20260506060326 | 38 | 95 | 13.0 | 30.0 | 0.18 | 0.21 | 0.19 | 99 | 1006.1 |
| 20260506051204 | 39 | 102 | 7.0 | 20.0 | 0.01 | 0.26 | 0.01 | 98 | 1006.3 |
| 20260506050905 | 39 | 109 | 5.0 | 14.0 | 0.01 | 0.26 | 0.01 | 98 | 1006.2 |
| 20260506050604 | 39 | 108 | 3.0 | 9.0 | 0.01 | 0.26 | 0.01 | 98 | 1006.0 |
| 20260506050325 | 39 | 115 | 2.0 | 9.0 | 0.01 | 0.27 | 0.01 | 98 | 1006.3 |
| 20260506045105 | 39 | 0 | 0.0 | 0.0 | 0.01 | 0.30 | 0.01 | 97 | 1006.3 |
| 20260506044827 | 39 | 0 | 0.0 | 0.0 | 0.00 | 0.30 | 0.00 | 97 | 1006.2 |
| 20260506044505 | 39 | 0 | 0.0 | 0.0 | 0.00 | 0.30 | 0.00 | 97 | 1006.3 |
| 20260506044205 | 39 | 0 | 0.0 | 0.0 | 0.00 | 0.30 | 0.00 | 97 | 1006.4 |
| 20260506043904 | 39 | 0 | 0.0 | 2.0 | 0.00 | 0.31 | 0.00 | 97 | 1006.3 |
| 20260506043626 | 39 | 0 | 0.0 | 2.0 | 0.00 | 0.31 | 0.00 | 97 | 1006.4 |
| 20260506043304 | 39 | 95 | 0.0 | 2.0 | 0.00 | 0.31 | 0.00 | 97 | 1006.4 |
| 20260506043025 | 39 | 95 | 0.0 | 2.0 | 0.00 | 0.31 | 0.00 | 96 | 1006.4 |
| 20260506042725 | 39 | 99 | 0.0 | 2.0 | 0.00 | 0.31 | 0.00 | 96 | 1006.1 |
| 20260506042405 | 39 | 90 | 0.0 | 2.0 | 0.00 | 0.32 | 0.00 | 96 | 1006.3 |
| 20260506042105 | 39 | 86 | 0.0 | 2.0 | 0.00 | 0.33 | 0.00 | 96 | 1006.4 |
| 20260506041805 | 39 | 86 | 0.0 | 2.0 | 0.00 | 0.33 | 0.00 | 96 | 1006.5 |
| 20260506041504 | 39 | 86 | 1.0 | 4.0 | 0.00 | 0.34 | 0.00 | 96 | 1006.2 |
| 20260506041204 | 39 | 88 | 1.0 | 4.0 | 0.00 | 0.34 | 0.00 | 96 | 1006.4 |
| 20260506040904 | 39 | 88 | 1.0 | 4.0 | 0.00 | 0.35 | 0.00 | 95 | 1006.5 |
| 20260506040604 | 39 | 90 | 0.0 | 4.0 | 0.00 | 0.35 | 0.00 | 95 | 1006.6 |
| 20260506040304 | 39 | 84 | 0.0 | 4.0 | 0.00 | 0.37 | 0.00 | 95 | 1006.6 |
| 20260506040005 | 39 | 93 | 1.0 | 4.0 | 0.00 | 0.37 | 0.00 | 95 | 1006.7 |
| 20260506035704 | 39 | 91 | 2.0 | 9.0 | 0.00 | 0.38 | 0.00 | 95 | 1006.7 |
| 20260506035426 | 39 | 91 | 2.0 | 9.0 | 0.00 | 0.38 | 0.00 | 95 | 1006.5 |
| 20260506035126 | 39 | 95 | 3.0 | 9.0 | 0.00 | 0.38 | 0.00 | 95 | 1006.7 |
| 20260506034805 | 40 | 86 | 2.0 | 9.0 | 0.00 | 0.38 | 0.00 | 95 | 1006.7 |
| 20260506034505 | 40 | 97 | 1.0 | 6.0 | 0.00 | 0.38 | 0.00 | 95 | 1006.7 |
| 20260506034225 | 40 | 117 | 2.0 | 7.0 | 0.00 | 0.38 | 0.00 | 94 | 1006.8 |
| 20260506033925 | 40 | 116 | 2.0 | 8.0 | 0.00 | 0.39 | 0.00 | 94 | 1007.0 |
| 20260506033604 | 40 | 107 | 2.0 | 8.0 | 0.00 | 0.39 | 0.00 | 93 | 1007.0 |
| 20260506033305 | 40 | 98 | 3.0 | 11.0 | 0.00 | 0.40 | 0.00 | 93 | 1007.1 |
| 20260506033005 | 40 | 85 | 3.0 | 11.0 | 0.00 | 0.40 | 0.00 | 93 | 1006.9 |
| 20260506032704 | 40 | 89 | 5.0 | 11.0 | 0.00 | 0.40 | 0.00 | 92 | 1006.9 |
| 20260506032404 | 40 | 90 | 6.0 | 15.0 | 0.00 | 0.41 | 0.00 | 92 | 1007.1 |
| 20260506032105 | 40 | 91 | 8.0 | 16.0 | 0.00 | 0.41 | 0.00 | 92 | 1007.0 |
| 20260506031805 | 40 | 93 | 10.0 | 16.0 | 0.00 | 0.41 | 0.00 | 92 | 1007.1 |
| 20260506031504 | 40 | 92 | 10.0 | 16.0 | 0.00 | 0.41 | 0.00 | 93 | 1007.1 |
| 20260506031205 | 39 | 90 | 9.0 | 15.0 | 0.00 | 0.41 | 0.00 | 94 | 1007.0 |
| 20260506030925 | 39 | 90 | 8.0 | 15.0 | 0.00 | 0.41 | 0.00 | 95 | 1007.0 |
| 20260506030626 | 39 | 87 | 8.0 | 14.0 | 0.00 | 0.41 | 0.00 | 96 | 1007.0 |
| 20260506030304 | 39 | 87 | 8.0 | 14.0 | 0.00 | 0.41 | 0.00 | 97 | 1007.1 |
| 20260506030005 | 38 | 85 | 6.0 | 14.0 | 0.00 | 0.41 | 0.00 | 98 | 1007.1 |
| 20260506025726 | 38 | 81 | 4.0 | 14.0 | 0.00 | 0.41 | 0.00 | 98 | 1007.1 |
| 20260506025404 | 39 | 81 | 2.0 | 4.0 | 0.00 | 0.41 | 0.00 | 99 | 1007.2 |
| 20260506025105 | 39 | 87 | 1.0 | 4.0 | 0.00 | 0.41 | 0.00 | 99 | 1007.4 |
| 20260506024804 | 39 | 93 | 1.0 | 4.0 | 0.00 | 0.41 | 0.00 | 99 | 1007.4 |
| 20260506024504 | 39 | 114 | 0.0 | 4.0 | 0.00 | 0.41 | 0.00 | 99 | 1007.5 |
| 20260506024226 | 39 | 236 | 0.0 | 2.0 | 0.00 | 0.41 | 0.00 | 99 | 1007.4 |
| 20260506023905 | 39 | 236 | 0.0 | 2.0 | 0.00 | 0.41 | 0.00 | 98 | 1007.3 |
| 20260506023604 | 39 | 236 | 0.0 | 2.0 | 0.00 | 0.41 | 0.00 | 98 | 1007.3 |
| 20260506023326 | 39 | 230 | 0.0 | 2.0 | 0.00 | 0.41 | 0.00 | 98 | 1007.6 |
| 20260506023004 | 39 | 357 | 0.0 | 2.0 | 0.00 | 0.41 | 0.00 | 98 | 1007.4 |
| 20260506022705 | 39 | 97 | 1.0 | 4.0 | 0.00 | 0.41 | 0.00 | 98 | 1007.4 |
| 20260506022426 | 39 | 98 | 1.0 | 4.0 | 0.00 | 0.41 | 0.00 | 98 | 1007.5 |
| 20260506022104 | 39 | 104 | 1.0 | 7.0 | 0.00 | 0.41 | 0.00 | 98 | 1007.5 |
| 20260506021804 | 39 | 106 | 2.0 | 7.0 | 0.00 | 0.41 | 0.00 | 98 | 1007.6 |
| 20260506021526 | 39 | 100 | 3.0 | 8.0 | 0.00 | 0.41 | 0.00 | 98 | 1007.7 |
| 20260506021204 | 39 | 97 | 5.0 | 8.0 | 0.00 | 0.41 | 0.00 | 98 | 1007.8 |
| 20260506020905 | 39 | 93 | 6.0 | 8.0 | 0.00 | 0.41 | 0.00 | 98 | 1007.5 |
| 20260506020604 | 39 | 92 | 5.0 | 8.0 | 0.00 | 0.41 | 0.00 | 98 | 1007.8 |
| 20260506020305 | 39 | 91 | 4.0 | 8.0 | 0.00 | 0.41 | 0.00 | 98 | 1007.7 |
| 20260506020004 | 39 | 85 | 2.0 | 6.0 | 0.00 | 0.41 | 0.00 | 98 | 1007.8 |
| 20260506015705 | 39 | 81 | 1.0 | 4.0 | 0.00 | 0.41 | 0.00 | 97 | 1007.8 |
| 20260506015426 | 39 | 59 | 0.0 | 4.0 | 0.00 | 0.41 | 0.00 | 97 | 1007.8 |
| 20260506015104 | 39 | 5 | 0.0 | 4.0 | 0.00 | 0.41 | 0.00 | 97 | 1007.8 |
| 20260506014826 | 39 | 340 | 1.0 | 6.0 | 0.00 | 0.41 | 0.00 | 97 | 1007.6 |
| 20260506014525 | 39 | 332 | 2.0 | 6.0 | 0.00 | 0.41 | 0.00 | 97 | 1007.6 |
| 20260506014205 | 39 | 335 | 3.0 | 6.0 | 0.00 | 0.41 | 0.00 | 97 | 1008.0 |
| 20260506013926 | 39 | 337 | 2.0 | 6.0 | 0.00 | 0.41 | 0.00 | 97 | 1007.9 |
| 20260506013604 | 39 | 342 | 2.0 | 6.0 | 0.00 | 0.41 | 0.00 | 97 | 1008.0 |
| 20260506013304 | 39 | 341 | 1.0 | 4.0 | 0.00 | 0.41 | 0.00 | 97 | 1008.1 |
| 20260506013004 | 39 | 336 | 2.0 | 4.0 | 0.00 | 0.41 | 0.00 | 97 | 1008.2 |
| 20260506012705 | 39 | 330 | 1.0 | 4.0 | 0.00 | 0.41 | 0.00 | 97 | 1008.3 |
| 20260506012404 | 39 | 334 | 1.0 | 2.0 | 0.00 | 0.41 | 0.00 | 97 | 1008.1 |
| 20260506012104 | 39 | 51 | 1.0 | 2.0 | 0.00 | 0.41 | 0.00 | 97 | 1008.4 |
| 20260506011804 | 39 | 87 | 1.0 | 4.0 | 0.00 | 0.41 | 0.00 | 97 | 1008.4 |
| 20260506011525 | 39 | 88 | 2.0 | 6.0 | 0.00 | 0.41 | 0.00 | 97 | 1008.4 |
| 20260506011204 | 39 | 90 | 3.0 | 6.0 | 0.00 | 0.41 | 0.00 | 96 | 1008.6 |
| 20260506010904 | 39 | 95 | 3.0 | 6.0 | 0.00 | 0.41 | 0.00 | 96 | 1008.5 |
| 20260506010626 | 39 | 95 | 3.0 | 6.0 | 0.00 | 0.41 | 0.00 | 95 | 1008.4 |
| 20260506010304 | 39 | 95 | 3.0 | 6.0 | 0.00 | 0.41 | 0.00 | 96 | 1008.4 |
| 20260506010004 | 38 | 91 | 2.0 | 4.0 | 0.00 | 0.41 | 0.00 | 96 | 1008.5 |
| 20260506005706 | 38 | 91 | 2.0 | 4.0 | 0.00 | 0.41 | 0.00 | 97 | 1008.6 |
| 20260506005425 | 38 | 79 | 2.0 | 4.0 | 0.00 | 0.41 | 0.00 | 97 | 1008.3 |
| 20260506005105 | 38 | 38 | 1.0 | 4.0 | 0.00 | 0.41 | 0.00 | 97 | 1008.4 |
| 20260506004805 | 39 | 344 | 1.0 | 4.0 | 0.00 | 0.41 | 0.00 | 98 | 1008.5 |
| 20260506004505 | 39 | 338 | 1.0 | 4.0 | 0.00 | 0.41 | 0.00 | 98 | 1008.4 |
| 20260506004227 | 39 | 336 | 2.0 | 4.0 | 0.00 | 0.41 | 0.00 | 98 | 1008.4 |
| 20260506003904 | 39 | 335 | 2.0 | 4.0 | 0.00 | 0.41 | 0.00 | 97 | 1008.4 |